CZ-6A DEB

Satellite information

Favourite Embed

Satellite Type and Status

DEBRISIN ORBIT

Key statistics

Satellite CZ-6A DEB at a glance.

Uptime

335

Days in orbit

Revolutions

≈ 14.8

Per day

Orbit

LEO

Low Earth Orbit

Inclination

88.9

Latest

Satellite identification and parameters

Extended collection of information and parameters for CZ-6A DEB.

Object identification

Identified? True

Debris? True

Object name: CZ-6A DEB

International designator: 2024-140ZQ

Object number (NORAD): 61458

Object ID (CCSDS): 61458

Country: PEOPLES REPUBLIC OF CHINA (PRC)

Current information (Y/N): Y

RCS size: SMALL

Orbital parameters

Period: 97.309 minutes

Inclination: 88.9467 deg

SMA: 7008.04 km

Apoapsis: 727.775 km

Periapsis: 532.036 km

RAAN: 307.9079 deg

Eccentricy: 0.0139653

Argument of periapsis: 287.3679 deg

Mean anomaly: 71.2312 deg

Mean motion: 14.79816538 rev/day

Mean motion (dot): 0.00007069 rev/day2

B* drag term: 0.0007926 1/REarth

Two-line elements (TLE)

Creation date: July 6, 2025, 10:26 p.m.

Reference frame: TEME

Reference center: EARTH

Epoch: July 6, 2025, 2:29 p.m. UTC

TLE line 0: 0 CZ-6A DEB

TLE line 1: 1 61458U 24140ZQ 25187.60382597 .00007069 00000-0 79260-3 0 9997

TLE line 2: 2 61458 88.9467 307.9079 0139653 287.3679 71.2312 14.79816538 45942

Live tracking on map

Real-time ground track for satellite CZ-6A DEB.

In-orbit conjunctions

A list of the most updated potential collisions computed for object CZ-6A DEB.

Target Orbit TCA Probability of collision Miss distance Type
CZ-4B R/B SSO 2025-06-05 14:38:04 0.000460198 296.0 (m) ROCKET BODY
IRIDIUM 63 LEO 2024-11-11 11:14:13 0.0001791025 746.0 (m) PAYLOAD
FENGYUN 1C DEB SSO 2024-10-28 08:57:28 0.0003218411 396.0 (m) DEBRIS

Associated space launch

18 Low Earth Orbit communication satellites with Ku, Q and V band payloads for the G60 constellation operated by Shanghai Spacecom Satellite Technology (SSST) with funding backed by the Shanghai local government. Initial constellation will consist of 1296 satellites by 2027 with long term plans to expand it to 12000 satellites.

CZ-6A DEB was lifted into orbit during the mission ‘Long March 6A | G60 Polar Group 01’, on board a Long March 6A space rocket.

The launch took place on Aug. 6, 2024, 6:42 a.m. from Launch Complex 9A.

For more information about the launch, click the button.

Launch to space Long March 6A | G60 Polar Group 01
Long March 6A | G60 Polar Group 01

Agency: N/A

Status: Launch Successful

Launch date: Aug. 6, 2024, 6:42 a.m. UTC

Rocket: Long March 6A

Launch pad: Launch Complex 9A

Location: Taiyuan Satellite Launch Center, People's Republic of China

...

Latest news about this satellite

News about space launch
Brightness of first Chinese broadband constellation satellites alarms astronomers

The first satellites of a Chinese broadband constellation are significantly brighter than those of Western systems, posing a new challenge for astronomers.

News about space launch
Chinese rocket stage breaks up into cloud of more than 700 pieces of space debris

HELSINKI — A Chinese Long March 6A rocket’s upper stage has fragmented into a cloud of over 700 pieces of space debris, adding to concerns about long-term orbital safety. China […]

News about space launch
China's Thousand Sails Megaconstellation Kicks Off with Dangerous Debris Field

China's Thousand Sails Megaconstellation Kicks Off with Dangerous Debris Field


Newsletter sign-up

Weekly statistics, charts and insights to help you stay on top of the space industry.